Vertical_Velocity
-1 -0 -0 -1 0 1 -1 -1 -1 0 -1 -1 -1 -0 -0 1 1 -1 0 1 -1 -1 -1 1 -0 0 0 -0 -1 -1 -1 -1 -1 0 -2 -2 0 -1 -1 -1 -1 0 -0
4 -0 2 -1 1 2 -0 -1 -2 -0 -0 0 1 -1 0 0 1 -0 1 0 0 -0 -0 -0 1 1 0 -0 -0 -0 -1 1 -1 -0 -1 -1 -2 -2 -2 -2 -1 -1 -1
1 1 1 -0 -1 1 0 -0 0 -1 -2 -1 -2 -0 1 6 1 3 1 -1 2 -0 -1 -1 -0 -0 -0 0 -1 -0 -1 0 -0 0 -0 -1 0 -0 -2 -1 -1 -1 -1
1 2 -0 1 -0 -1 0 -0 1 -0 -0 -4 3 2 5 -0 -0 1 2 1 1 0 1 -2 1 -1 -1 -1 -0 -1 0 -0 -0 -0 -1 -1 -1 -1 -1 -2 -2 -1 -0
-1 1 0 -1 1 1 -1 -1 0 1 1 -5 0 8 8 -1 1 -0 0 1 1 1 1 -0 -0 -1 -0 -1 -1 -1 -1 -0 -1 -1 -1 -1 -1 -0 -0 -1 -2 -2 -1
-1 2 3 -1 -2 2 -2 -1 -1 -0 3 -1 -4 5 5 -1 1 -0 0 -1 1 -1 0 -0 -1 -2 -1 -0 -0 -1 -0 -0 -1 -1 -1 -0 -1 -1 -1 -2 -1 -1 -1
1 -3 3 1 -2 1 4 -3 -2 -0 0 2 -2 -1 -1 -2 -2 -0 -0 -1 -1 -1 -1 -0 -0 -1 -1 -1 0 -0 -1 -0 -1 -1 -0 -1 -0 -1 -1 -1 -1 -1 -2
3 -3 1 -2 2 -3 1 2 -3 1 1 -0 1 -1 -0 1 -2 -1 -1 -1 -1 1 -1 -0 -0 0 -0 0 0 -1 -1 -2 -1 -0 -1 -1 -0 -0 -1 -1 -2 -1 -1
1 2 -3 1 3 -2 0 1 -0 -1 0 0 -1 -2 -0 -1 0 -2 0 -1 -0 -1 -0 0 -1 -0 1 0 -0 -0 -0 -0 -1 -1 -0 -1 -1 -0 0 0 -1 -1 -1
9 5 -0 1 0 -0 -3 1 -0 1 -0 -1 1 -2 -1 -2 1 -0 -1 0 -0 -0 -1 -0 1 -0 -1 -0 -0 -0 -0 -0 -1 -1 -1 -0 -0 0 -0 0 0 -0 -1
3 9 5 2 1 0 2 -2 -1 0 0 -1 1 1 0 0 0 0 -2 -2 1 -1 -1 -0 -1 -0 -0 -0 -2 -0 1 1 1 1 -0 -1 -1 -1 -0 -0 -0 -0 -0
9 2 6 4 4 2 3 1 0 1 0 -0 -0 -2 3 -1 -1 -1 -1 -2 -1 -0 -1 -0 -1 -1 -2 -2 -0 -2 -2 -0 1 0 0 -0 -1 -1 -1 -1 -1 -1 -1
2 14 5 -0 -2 3 3 2 3 1 3 -3 -4 1 0 -1 1 2 0 -1 -1 0 1 -1 -0 -0 -2 0 -1 1 -2 -2 -1 0 1 1 -0 0 -0 -1 -0 1 0
11 13 8 1 -3 2 2 4 2 7 5 2 -2 2 -1 1 1 4 4 2 2 2 -0 3 1 1 0 -2 -1 -1 1 -0 -2 -3 -2 -1 -1 -0 0 -0 -0 -1 -2
15 14 15 2 6 7 1 1 -1 5 5 5 -1 3 2 2 -2 -0 1 0 1 3 0 1 2 1 2 0 -0 -1 -1 -0 -1 -1 -1 -2 -2 -2 -2 -1 -1 -1 3
9 13 2 3 1 3 8 -1 -1 2 0 5 5 4 3 -1 2 -1 4 2 2 -1 1 -0 2 3 3 0 1 -1 -0 -1 -1 -3 -2 -0 -0 -1 -1 -2 -2 -1 0
-3 23 2 -2 -1 4 2 5 1 -2 -1 -0 1 1 2 6 3 3 0 1 -0 1 1 1 -1 0 2 2 1 3 1 1 0 4 0 1 -2 -2 -2 -1 -1 -0 4
17 11 -1 -26 -23 -15 -12 3 6 2 -1 2 3 4 5 3 -0 2 3 2 -2 2 1 3 -2 -0 2 0 -0 2 4 -1 -1 2 4 3 2 -0 0 -3 -1 -4 -3
-10 3 -1 -6 -21 1 -11 21 6 5 1 -5 2 4 6 -4 3 2 1 1 0 1 1 2 -1 3 -2 1 -2 -1 -0 4 -1 -1 -3 -1 -1 3 1 -3 1 -2 -2
-10 -14 -23 -20 2 0 -11 -5 5 0 5 -3 -3 1 -1 -1 1 2 6 4 -4 1 1 2 6 -1 0 0 -0 5 -4 5 2 -1 -1 -1 -1 -3 -3 2 -2 -2 1
-10 2 -5 7 3 -6 18 -12 -9 0 6 5 4 2 -5 13 9 8 3 2 1 -3 1 -2 3 4 4 -0 2 0 4 -1 1 2 3 -0 4 2 -0 -1 2 1 1
-10 -1 -5 21 3 14 13 -9 -22 -20 -11 -11 8 -3 5 2 -0 -1 6 -4 -1 0 8 3 5 7 5 7 -2 3 2 7 5 3 3 1 0 2 1 -0 -2 3 2
6 -17 34 25 -3 10 6 -4 -3 -6 1 -16 7 4 -3 -5 3 32 5 14 7 8 3 8 6 10 7 -0 4 1 -6 0 -5 3 1 -1 2 0 1 1 0 -4 -1
9 1 2 -14 -7 14 5 -14 -9 6 8 -7 -13 -23 -32 -6 2 -37 -10 -2 -5 5 51 27 13 15 2 -3 1 -6 -9 -10 -4 -7 -2 0 -2 4 -0 -1 4 6 1
2 -9 2 25 14 -8 0 1 13 4 6 6 11 -11 -20 8 -12 2 4 -13 -1 -6 -9 -20 19 -5 -7 -11 -10 -10 -4 0 -1 1 -6 1 -0 -3 -2 -0 -2 -2 1
3 5 11 -1 -1 8 10 1 1 -1 9 5 5 -1 7 8 10 -4 8 4 10 -4 5 -8 -20 -14 -5 -10 -4 -4 0 2 2 -1 -1 -7 -6 3 -2 2 -1 -0 -1
Height
3154 3156 3157 3158 3160 3161 3163 3163 3164 3165 3167 3169 3171 3174 3176 3180 3182 3184 3186 3187 3187 3188 3188 3189 3189 3190 3190 3190 3190 3190 3190 3190 3189 3189 3188 3187 3187 3186 3185 3184 3184 3183 3182
3153 3154 3155 3157 3159 3160 3162 3163 3164 3164 3166 3168 3171 3174 3177 3180 3183 3185 3186 3187 3188 3188 3189 3190 3190 3191 3191 3191 3191 3191 3191 3191 3191 3190 3190 3189 3188 3188 3187 3186 3185 3184 3183
3151 3153 3154 3156 3157 3159 3161 3162 3163 3165 3166 3168 3172 3175 3178 3180 3182 3185 3186 3187 3188 3189 3190 3191 3191 3192 3192 3192 3192 3192 3192 3192 3193 3192 3192 3191 3190 3189 3188 3187 3186 3185 3184
3149 3151 3152 3154 3156 3158 3159 3161 3163 3164 3167 3169 3173 3176 3179 3181 3183 3185 3186 3187 3189 3190 3191 3192 3192 3193 3193 3193 3194 3194 3194 3194 3194 3194 3193 3192 3191 3191 3189 3188 3187 3186 3186
3146 3149 3151 3153 3154 3156 3158 3160 3162 3164 3167 3169 3172 3175 3178 3181 3183 3185 3186 3188 3189 3191 3191 3192 3193 3194 3194 3195 3195 3195 3195 3195 3195 3195 3194 3193 3192 3192 3191 3190 3189 3188 3187
3143 3146 3149 3151 3153 3155 3157 3159 3162 3164 3167 3169 3172 3175 3177 3180 3182 3184 3186 3188 3189 3191 3192 3193 3194 3195 3195 3196 3196 3196 3196 3196 3196 3195 3195 3194 3193 3192 3191 3190 3189 3188 3187
3140 3143 3146 3149 3151 3154 3156 3158 3161 3164 3166 3169 3172 3174 3177 3180 3182 3184 3186 3188 3190 3192 3193 3194 3195 3196 3197 3197 3197 3197 3196 3196 3196 3196 3196 3195 3194 3193 3192 3191 3190 3189 3188
3137 3140 3144 3147 3150 3153 3155 3158 3160 3162 3165 3168 3170 3173 3176 3179 3182 3184 3187 3189 3191 3193 3194 3195 3196 3197 3198 3198 3198 3198 3197 3197 3196 3196 3195 3195 3194 3193 3192 3191 3190 3189 3188
3133 3136 3141 3144 3147 3151 3154 3157 3159 3161 3164 3167 3170 3173 3176 3179 3182 3184 3187 3190 3192 3193 3195 3196 3197 3197 3198 3198 3198 3198 3197 3197 3196 3195 3195 3195 3194 3193 3192 3191 3190 3189 3187
3128 3132 3137 3141 3145 3149 3152 3156 3158 3161 3164 3167 3170 3172 3175 3179 3182 3185 3188 3190 3192 3193 3195 3196 3197 3197 3197 3197 3197 3197 3196 3196 3195 3194 3194 3194 3193 3193 3191 3190 3189 3187 3186
3126 3129 3133 3138 3142 3146 3150 3154 3157 3160 3163 3166 3169 3172 3175 3179 3182 3185 3188 3190 3192 3194 3195 3196 3196 3197 3197 3197 3196 3196 3195 3194 3194 3193 3192 3192 3191 3191 3190 3189 3187 3186 3184
3120 3126 3129 3134 3139 3145 3149 3153 3157 3160 3163 3166 3169 3172 3175 3178 3182 3184 3187 3189 3191 3193 3194 3195 3195 3196 3196 3195 3195 3194 3194 3193 3193 3192 3191 3190 3189 3189 3188 3187 3185 3184 3182
3120 3123 3127 3132 3138 3143 3147 3152 3156 3160 3162 3165 3168 3172 3175 3178 3181 3184 3186 3188 3190 3192 3193 3194 3194 3194 3194 3194 3194 3193 3192 3192 3191 3190 3189 3188 3188 3187 3186 3185 3183 3182 3180
3118 3123 3125 3130 3137 3141 3145 3150 3155 3161 3163 3166 3169 3171 3174 3177 3180 3183 3185 3186 3188 3190 3191 3192 3192 3192 3192 3192 3192 3192 3191 3190 3189 3188 3187 3186 3186 3185 3184 3183 3181 3179 3176
3116 3121 3124 3129 3137 3142 3146 3149 3153 3157 3162 3165 3168 3171 3173 3176 3179 3181 3183 3185 3186 3187 3188 3189 3190 3190 3190 3190 3189 3189 3188 3188 3187 3186 3185 3184 3183 3182 3181 3180 3179 3177 3175
3113 3119 3121 3125 3133 3139 3148 3152 3155 3157 3158 3162 3167 3170 3173 3175 3177 3179 3181 3182 3184 3185 3186 3186 3187 3187 3188 3187 3187 3187 3186 3185 3184 3183 3182 3181 3180 3178 3178 3177 3175 3173 3172
3111 3114 3120 3124 3127 3136 3144 3153 3157 3158 3159 3161 3165 3169 3171 3174 3175 3177 3178 3180 3180 3181 3182 3183 3184 3184 3184 3185 3184 3184 3183 3182 3181 3181 3180 3178 3176 3175 3174 3173 3171 3169 3167
3105 3109 3118 3124 3130 3133 3142 3148 3156 3158 3158 3159 3163 3167 3169 3171 3172 3174 3175 3176 3177 3178 3179 3179 3180 3180 3180 3181 3181 3180 3179 3179 3178 3177 3176 3174 3173 3171 3169 3168 3167 3165 3163
3107 3107 3117 3121 3129 3136 3141 3143 3147 3152 3156 3157 3158 3162 3164 3166 3168 3169 3171 3172 3172 3173 3174 3175 3175 3175 3176 3176 3177 3177 3176 3175 3175 3173 3172 3170 3169 3167 3166 3164 3162 3160 3158
3106 3111 3114 3123 3130 3133 3133 3137 3139 3145 3150 3154 3155 3157 3159 3162 3164 3163 3165 3167 3167 3168 3169 3170 3170 3171 3171 3171 3171 3171 3172 3170 3170 3169 3168 3166 3164 3162 3161 3158 3157 3155 3152
3102 3108 3113 3121 3123 3125 3130 3130 3131 3138 3143 3147 3150 3151 3153 3156 3158 3158 3159 3160 3161 3163 3164 3164 3164 3164 3164 3165 3166 3165 3165 3165 3165 3163 3163 3162 3160 3157 3155 3153 3151 3149 3147
3098 3104 3114 3117 3118 3122 3131 3130 3133 3136 3137 3143 3144 3145 3147 3150 3151 3153 3153 3153 3154 3155 3157 3158 3158 3159 3160 3159 3160 3159 3158 3161 3159 3159 3158 3156 3154 3152 3149 3148 3146 3145 3142
3098 3103 3103 3109 3117 3122 3126 3128 3130 3133 3136 3138 3138 3139 3143 3145 3144 3142 3143 3146 3148 3149 3150 3150 3151 3152 3152 3153 3154 3152 3152 3152 3150 3152 3151 3149 3147 3145 3143 3142 3140 3138 3136
3093 3101 3104 3108 3110 3115 3120 3122 3125 3125 3131 3133 3133 3135 3137 3138 3137 3131 3136 3137 3139 3139 3139 3138 3140 3142 3143 3146 3147 3147 3147 3147 3145 3144 3145 3143 3140 3138 3135 3134 3133 3131 3130
3094 3099 3104 3104 3107 3113 3116 3117 3118 3121 3124 3126 3127 3129 3130 3130 3132 3131 3132 3132 3132 3135 3137 3132 3133 3136 3136 3139 3142 3143 3143 3142 3142 3138 3136 3138 3134 3132 3130 3127 3126 3123 3122
3095 3098 3100 3105 3111 3112 3111 3113 3115 3117 3118 3120 3122 3123 3123 3124 3127 3130 3129 3128 3130 3131 3132 3130 3131 3132 3132 3134 3136 3136 3137 3136 3134 3132 3128 3129 3128 3126 3123 3120 3118 3115 3114